Location: Cruquius
(52.3348°N, 4.6319°E)
Time: 22:48:44
(UTC+00:00)

Cosmos 1818 - Pass Details

Date: 12 May 2021
Orbit: 771 x 802 km, 65.0° (Epoch: 24 June)

Event Time Altitude Azimuth Distance (km) Brightness Sun altitude
Rises 21:51:48 0° 316° (NW) 3,321 8.3 -15.6°
Reaches altitude 10° 21:54:14 10° 316° (NW) 2,388 7.2 -15.8°
Maximum altitude 21:59:45 84° 231° (SW) 814 3.6 -16.1°
Enters shadow 22:02:56 26° 144° (SE) 1,532 4.5 -16.3°
